Station CWCI - Caribou Island Image indicating link to RSS feed of recent meteorological observations for station CWCI

Data from this station are not quality controlled by NDBC


Conditions at CWCI as of
(5:00 am CST)
1100 GMT on 11/30/2023:
     

Click on the graph icon in the table below to see a time series plot of the last five days of that observation.

5-day plot - Wind Direction Wind Direction (WDIR): W ( 260 deg true )
5-day plot - Wind Speed Wind Speed (WSPD): 15.9 kts
5-day plot - Atmospheric Pressure Atmospheric Pressure (PRES):29.57 in
5-day plot - Air Temperature Air Temperature (ATMP): 39.6 °F
5-day plot - Dew Point Dew Point (DEWP): 35.2 °F
5-day plot -  Wind Speed, Wind Gust and Atmospheric Pressure Combined plot of Wind Speed, Gust, and Air Pressure

Data from this station are not quality controlled by NDBC

Previous observations
TIME
(CST)
5-day plot - Wind Direction
WDIR
 
5-day plot - Wind Speed
WSPD
kts
5-day plot - Wind Gust
GST
kts
5-day plot - Wave Height
WVHT
ft
5-day plot - Dominant Wave Period
DPD
sec
5-day plot - Average Wave Period
APD
sec
5-day plot - Mean Wave Direction
MWD
 
5-day plot - Atmospheric Pressure
PRES
in
5-day plot - Pressure Tendency
PTDY
in
5-day plot - Air Temperature
ATMP
°F
5-day plot - Water Temperature
WTMP
°F
5-day plot - Dew Point
DEWP
°F
5-day plot - Salinity
SAL
psu
5-day plot - Visibility
VIS
nmi
5-day plot - Tide (above MLLW)
TIDE
ft
2023-11-30 04:00 amWSW 17.1-----29.58- 39.2- 35.4---
2023-11-30 03:00 amWSW 19.0-----29.58- 39.2- 34.7---
2023-11-30 02:00 am SW 15.9-----29.59- 39.4- 35.6---
2023-11-30 01:00 am SW 17.1-----29.59- 39.4- 35.4---
2023-11-30 12:00 am SW 15.9-----29.62- 39.4- 35.1---
2023-11-29 11:00 pm SW 15.9-----29.63- 39.6- 35.1---
2023-11-29 10:00 pmWSW 14.0-----29.63- 39.2- 35.4---
2023-11-29 09:00 pmWSW 19.0-----29.62- 39.4- 34.7---
2023-11-29 08:00 pm W 19.0-----29.63- 39.0- 34.2---
2023-11-29 07:00 pm W 22.0-----29.63- 38.7- 34.0---
2023-11-29 06:00 pm W 25.1-----29.62- 38.1- 31.6---
2023-11-29 05:00 pm W 25.1 29.9----29.60- 38.3- 33.6---
2023-11-29 04:00 pm W 27.0-----29.59- 38.3- 32.0---
2023-11-29 03:00 pm W 22.9-----29.57- 38.1- 34.7---
2023-11-29 02:00 pm W 20.0 29.9----29.57- 37.8- 34.3---
2023-11-29 01:00 pmWNW 22.9-----29.57- 37.4- 34.3---
2023-11-29 12:00 pmWNW 26.0-----29.56- 37.4- 34.0---
2023-11-29 11:00 am W 25.1-----29.57- 36.5- 34.5---
2023-11-29 10:00 am W 25.1-----29.58- 36.0- 34.0---
2023-11-29 09:00 am W 26.0-----29.58- 35.6- 33.4---
2023-11-29 08:00 am W 22.0-----29.58- 36.0- 31.3---
2023-11-29 07:00 am W 22.9-----29.58- 35.2- 32.0---
2023-11-29 06:00 amWSW 25.1-----29.60- 33.8- 32.9---
2023-11-29 05:00 amWSW 22.0-----29.61- 31.5- 30.0---